Terminal Aerodrome Forecast
Issued by NWS

Home | Current Version | Previous Version | Text Only | Print | Product List | Glossary On
Versions: 1 2 3 4 5 6 7 8 9 10 11 12 13 14 15
000
FTUS45 KABQ 231100
TAFLVS
TAF
KLVS 231139Z 2312/2412 VRB06KT P6SM FEW090
     FM231700 17010KT P6SM SCT100
     FM232000 16012G20KT P6SM SCT100
     FM240200 18010KT P6SM SCT150
     FM240400 21009KT P6SM SKC=

USA.gov is the U.S. government's official web portal to all federal, state and local government web resources and services.